Location: Larrial
(48.2758°N, 4.5331°W)
Time: 20:01:20
(UTC+00:00)

ISS - Visible Passes

Search period start: 21 September 2021 00:00
Search period end: 01 October 2021 00:00
Orbit: 419 x 423 km, 51.6° (Epoch: 21 September)

Date Brightness Start Highest point End Pass type
(mag) Time Alt. Az. Time Alt. Az. Time Alt. Az.
21 Sep -3.6 19:42:43 10° WSW 19:46:05 69° NNW 19:47:52 25° ENE visible
21 Sep -0.8 21:19:57 10° WNW 21:20:52 17° WNW 21:20:52 17° WNW visible
22 Sep -3.8 18:55:47 10° WSW 18:59:10 90° NNE 19:02:34 10° ENE visible
22 Sep -2.6 20:32:58 10° WNW 20:35:48 42° NNW 20:35:48 42° NNW visible
23 Sep -3.0 19:45:57 10° W 19:49:15 48° N 19:50:41 28° NE visible
23 Sep -0.5 21:23:05 10° WNW 21:23:40 14° WNW 21:23:40 14° WNW visible
24 Sep -3.2 18:58:57 10° W 19:02:16 55° NNW 19:05:32 10° ENE visible
24 Sep -2.3 20:36:09 10° WNW 20:38:31 36° NW 20:38:31 36° NW visible
25 Sep -3.0 19:49:11 10° WNW 19:52:27 45° N 19:53:21 35° NE visible
25 Sep -0.3 21:26:08 10° WNW 21:26:20 11° WNW 21:26:20 11° WNW visible
26 Sep -3.0 19:02:11 10° WNW 19:05:26 45° N 19:08:10 14° ENE visible
26 Sep -1.9 20:39:12 10° WNW 20:41:09 31° WNW 20:41:09 31° WNW visible
27 Sep -3.5 19:52:17 10° WNW 19:55:37 56° NNE 19:55:58 52° NE visible
28 Sep -3.2 19:05:19 10° WNW 19:08:37 49° N 19:10:48 19° ENE visible
28 Sep -1.5 20:42:13 10° WNW 20:43:48 25° WNW 20:43:48 25° WNW visible
29 Sep -3.9 19:55:17 10° WNW 19:58:39 88° SW 19:58:39 88° SW visible
30 Sep -3.7 19:08:20 10° WNW 19:11:43 71° NNE 19:13:32 25° E visible
30 Sep -1.0 20:45:25 10° W 20:46:32 17° W 20:46:32 17° W visible
